Jamestown, ND

12:28 PM CST on January 16, 2018 (GMT -0600)
Jamestown Municipal

Weather History for KJMS - May, 2013

Change the Weather History Date:

Tuesday, May 21, 2013

  Actual Average Record
Temperature  
Mean Temperature 47 °F 57 °F  
Max Temperature 50 °F 70 °F 97 °F (1964)
Min Temperature 44 °F 45 °F 26 °F (1963)
Degree Days  
Heating Degree Days 18 9  
Month to date heating degree days 266 252  
Since 1 July heating degree days 9572 8846  
Cooling Degree Days 0 1  
Month to date cooling degree days 9 10  
Year to date cooling degree days 9 12  
Moisture  
Dew Point 45 °F    
Average Humidity 93    
Maximum Humidity 100    
Minimum Humidity 86    
Precipitation  
Precipitation 0.10 in 0.09 in 1.88 in (1987)
Month to date precipitation 3.91 1.74  
Year to date precipitation 5.10 4.63  
Sea Level Pressure  
Sea Level Pressure 29.78 in    
Wind  
Wind Speed 21 mph (NNE)    
Max Wind Speed 31 mph    
Max Gust Speed 40 mph    
Visibility 8 miles    
Events Rain    
T = Trace of Precipitation, MM = Missing Value Source: NWS Daily Summary

Daily Weather History Graph

Daily Weather History Graph

Search for Another Location

Airport or City:

Trip Planner

Search our weather history database for the weather conditions in past years. The results will help you decide how hot, cold, wet, or windy it might be!

Date:

Astronomy

May. 21, 2013 Rise Set
Actual Time 5:52 AM CDT 9:10 PM CDT
Civil Twilight 5:15 AM CDT 9:47 PM CDT
Nautical Twilight 4:27 AM CDT 10:36 PM CDT
Astronomical Twilight 3:26 AM CDT 11:38 PM CDT
Moon 5:13 PM CDT (5/21) 3:36 AM CDT (5/21)
Length of Visible Light 16h 32m
Length of Day
15h 18m
Waxing Gibbous, 84% of the Moon is Illuminated
May 21
Waxing Gibbous
May 24
Full
May 31
Last Quarter
Jun 8
New
Jun 16
First Quarter

Hourly Weather History & Observations

Time (CDT) Temp. Windchill Dew Point Humidity Pressure Visibility Wind Dir Wind Speed Gust Speed Precip Events Conditions
12:07 AM 50.0 °F - 48.2 °F 94% 29.57 in 4.0 mi NNE 29.9 mph 35.7 mph 0.01 in   Overcast
12:56 AM 50.0 °F - 48.9 °F 96% 29.59 in 7.0 mi NNE 25.3 mph 32.2 mph 0.01 in   Overcast
1:56 AM 50.0 °F - 50.0 °F 100% 29.61 in 7.0 mi NNE 26.5 mph - 0.00 in   Overcast
2:11 AM 50.0 °F - 48.2 °F 94% 29.60 in 3.0 mi NNE 24.2 mph 31.1 mph N/A   Overcast
2:56 AM 50.0 °F - 48.9 °F 96% 29.63 in 4.0 mi NNE 24.2 mph 32.2 mph 0.01 in Rain Light Rain
3:56 AM 48.9 °F - 46.9 °F 93% 29.65 in 10.0 mi NE 26.5 mph 34.5 mph 0.00 in Rain Light Rain
4:33 AM 48.2 °F - 46.4 °F 93% 29.64 in 10.0 mi NNE 24.2 mph 35.7 mph 0.00 in   Overcast
4:56 AM 48.0 °F - 46.0 °F 93% 29.67 in 7.0 mi NNE 26.5 mph 35.7 mph 0.00 in Rain Light Rain
5:19 AM 46.4 °F 37.5 °F 46.4 °F 100% 29.66 in 8.0 mi NNE 27.6 mph 32.2 mph 0.00 in Rain Light Rain
5:56 AM 46.0 °F 37.0 °F 45.0 °F 96% 29.69 in 9.0 mi NNE 27.6 mph 34.5 mph 0.00 in Rain Light Rain
6:56 AM 45.0 °F 35.6 °F 43.0 °F 93% 29.72 in 10.0 mi NNE 27.6 mph 38.0 mph 0.00 in   Overcast
7:56 AM 44.1 °F 35.0 °F 43.0 °F 96% 29.74 in 10.0 mi NNE 24.2 mph 32.2 mph 0.00 in   Overcast
8:56 AM 44.1 °F 34.8 °F 43.0 °F 96% 29.75 in 7.0 mi NNE 25.3 mph 32.2 mph 0.00 in Rain Light Rain
9:56 AM 45.0 °F 35.8 °F 43.0 °F 93% 29.77 in 9.0 mi NNE 26.5 mph 33.4 mph 0.00 in   Overcast
10:56 AM 45.0 °F 36.4 °F 43.0 °F 93% 29.78 in 10.0 mi NNE 23.0 mph - 0.00 in Rain Light Rain
11:56 AM 46.0 °F 38.0 °F 44.1 °F 93% 29.79 in 9.0 mi NNE 21.9 mph 29.9 mph 0.01 in Rain Light Rain
12:56 PM 46.9 °F - 45.0 °F 93% 29.80 in 6.0 mi North 19.6 mph - 0.01 in Rain Light Rain
1:09 PM 46.4 °F 38.7 °F 44.6 °F 93% 29.78 in 3.0 mi NNE 20.7 mph - 0.01 in Rain Rain
1:21 PM 46.4 °F 38.1 °F 44.6 °F 93% 29.78 in 5.0 mi NNE 24.2 mph 28.8 mph 0.02 in Rain Rain
1:52 PM 46.4 °F 38.5 °F 44.6 °F 93% 29.79 in 10.0 mi NNE 21.9 mph 28.8 mph 0.02 in   Overcast
1:56 PM 46.9 °F - 45.0 °F 93% 29.81 in 10.0 mi NNE 20.7 mph - 0.02 in   Overcast
2:26 PM 46.4 °F 38.1 °F 44.6 °F 93% 29.80 in 6.0 mi NNE 24.2 mph 29.9 mph 0.01 in Rain Light Rain
2:56 PM 46.9 °F - 45.0 °F 93% 29.83 in 8.0 mi NNE 21.9 mph - 0.02 in Rain Rain
3:03 PM 46.4 °F 38.3 °F 44.6 °F 93% 29.80 in 8.0 mi NNE 23.0 mph - 0.01 in Rain Light Rain
3:23 PM 46.4 °F 38.5 °F 44.6 °F 93% 29.81 in 6.0 mi NNE 21.9 mph 28.8 mph 0.03 in Rain Rain
3:31 PM 46.4 °F 38.3 °F 44.6 °F 93% 29.81 in 10.0 mi NNE 23.0 mph 29.9 mph 0.03 in Rain Light Rain
3:52 PM 46.4 °F 38.5 °F 44.6 °F 93% 29.82 in 10.0 mi NNE 21.9 mph 28.8 mph 0.03 in   Overcast
3:56 PM 46.9 °F - 45.0 °F 93% 29.84 in 10.0 mi NNE 21.9 mph 28.8 mph 0.03 in   Overcast
4:56 PM 46.9 °F - 46.0 °F 97% 29.85 in 10.0 mi NNE 18.4 mph - N/A   Overcast
5:56 PM 48.0 °F - 45.0 °F 89% 29.86 in 10.0 mi NNE 17.3 mph - N/A   Overcast
6:56 PM 48.0 °F - 45.0 °F 89% 29.87 in 10.0 mi NE 19.6 mph - 0.00 in Rain Light Rain
7:44 PM 48.2 °F - 44.6 °F 87% 29.85 in 10.0 mi NNE 15.0 mph 23.0 mph 0.00 in   Overcast
7:56 PM 48.0 °F - 45.0 °F 89% 29.88 in 10.0 mi NNE 16.1 mph 25.3 mph 0.00 in   Overcast
8:53 PM 48.2 °F - 46.4 °F 93% 29.87 in 10.0 mi NE 13.8 mph - N/A   Overcast
8:56 PM 48.0 °F - 46.0 °F 93% 29.90 in 10.0 mi NNE 15.0 mph - N/A   Overcast
9:34 PM 48.2 °F - 46.4 °F 93% 29.87 in 10.0 mi NE 18.4 mph - 0.00 in Rain Light Rain
9:56 PM 48.0 °F - 46.0 °F 93% 29.91 in 4.0 mi NE 15.0 mph - 0.00 in Rain Light Rain
10:31 PM 48.2 °F - 46.4 °F 93% 29.88 in 10.0 mi NE 18.4 mph 26.5 mph 0.00 in   Overcast
10:56 PM 48.0 °F - 45.0 °F 89% 29.91 in 10.0 mi NE 18.4 mph - 0.00 in   Overcast
11:40 PM 48.2 °F - 44.6 °F 87% 29.89 in 10.0 mi NE 24.2 mph 29.9 mph N/A   Overcast
11:56 PM 48.0 °F - 44.1 °F 86% 29.92 in 10.0 mi ENE 21.9 mph 34.5 mph N/A   Overcast